Time,TemperatureF,DewpointF,PressureIn,WindDirection,WindDirectionDegrees,WindSpeedMPH,WindSpeedGustMPH,Humidity,HourlyPrecipIn,Conditions,Clouds,dailyrainin,SoftwareType,DateUTC
2013-10-13 00:01:00,67.6,61.2,29.97,ESE,102,0.0,0.0,80,0.00,CLR,,0.00,WeatherDisplay:10.37,2013-10-13 04:01:00,
2013-10-13 00:02:00,67.6,61.2,29.97,ESE,102,0.0,0.0,80,0.00,CLR,,0.00,WeatherDisplay:10.37,2013-10-13 04:02:00,
2013-10-13 00:07:00,67.4,61.0,29.97,ESE,102,0.0,0.0,80,0.00,CLR,,0.00,WeatherDisplay:10.37,2013-10-13 04:07:00,
2013-10-13 00:12:00,67.4,61.0,29.97,ESE,102,0.0,0.0,80,0.00,CLR,,0.00,WeatherDisplay:10.37,2013-10-13 04:12:00,
2013-10-13 00:17:00,67.3,60.9,29.97,ESE,102,0.0,0.0,80,0.00,CLR,,0.00,WeatherDisplay:10.37,2013-10-13 04:17:00,
2013-10-13 00:22:00,67.1,60.7,29.97,ESE,102,0.0,0.0,80,0.00,CLR,,0.00,WeatherDisplay:10.37,2013-10-13 04:22:00,
2013-10-13 00:27:00,67.1,60.7,29.97,ESE,102,0.0,0.0,80,0.00,CLR,,0.00,WeatherDisplay:10.37,2013-10-13 04:27:00,
2013-10-13 00:32:00,66.9,60.5,29.97,ESE,102,0.0,0.0,80,0.00,CLR,,0.00,WeatherDisplay:10.37,2013-10-13 04:32:00,
2013-10-13 00:37:00,66.8,60.4,29.97,ESE,102,0.0,0.0,80,0.00,CLR,,0.00,WeatherDisplay:10.37,2013-10-13 04:37:00,
2013-10-13 00:42:00,66.8,60.4,29.97,ESE,102,0.0,0.0,80,0.00,CLR,,0.00,WeatherDisplay:10.37,2013-10-13 04:42:00,
2013-10-13 00:47:00,66.6,60.2,29.97,ESE,102,0.0,0.0,80,0.00,CLR,,0.00,WeatherDisplay:10.37,2013-10-13 04:47:00,
2013-10-13 00:53:00,66.6,60.2,29.97,ESE,102,0.0,0.0,80,0.00,CLR,,0.00,WeatherDisplay:10.37,2013-10-13 04:53:00,
2013-10-13 00:58:00,66.4,60.4,29.97,ESE,102,0.0,0.0,81,0.00,CLR,,0.00,WeatherDisplay:10.37,2013-10-13 04:58:00,
2013-10-13 01:03:00,66.4,60.4,29.97,ESE,102,0.0,0.0,81,0.00,CLR,,0.00,WeatherDisplay:10.37,2013-10-13 05:03:00,
2013-10-13 01:08:00,66.4,60.4,29.97,ESE,102,0.0,0.0,81,0.00,FEW,,0.00,WeatherDisplay:10.37,2013-10-13 05:08:00,
2013-10-13 01:13:00,66.3,60.3,29.97,ESE,102,0.0,0.0,81,0.00,FEW,,0.00,WeatherDisplay:10.37,2013-10-13 05:13:00,
2013-10-13 01:18:00,66.3,60.6,29.97,ESE,102,0.0,0.0,82,0.00,FEW,,0.00,WeatherDisplay:10.37,2013-10-13 05:18:00,
2013-10-13 01:23:00,66.3,60.6,29.98,ESE,102,0.0,0.0,82,0.00,FEW,,0.00,WeatherDisplay:10.37,2013-10-13 05:23:00,
2013-10-13 01:28:00,66.1,60.4,29.98,ESE,102,0.0,0.0,82,0.00,FEW,,0.00,WeatherDisplay:10.37,2013-10-13 05:28:00,
2013-10-13 01:33:00,66.0,60.3,29.97,ESE,102,0.0,0.0,82,0.00,FEW,,0.00,WeatherDisplay:10.37,2013-10-13 05:33:00,
2013-10-13 01:38:00,66.0,60.3,29.97,ESE,102,0.0,0.0,82,0.00,FEW,,0.00,WeatherDisplay:10.37,2013-10-13 05:38:00,
2013-10-13 01:43:00,65.8,60.2,29.97,ESE,102,0.0,0.0,82,0.00,FEW,,0.00,WeatherDisplay:10.37,2013-10-13 05:43:00,
2013-10-13 01:48:00,66.0,60.7,29.97,ESE,102,0.0,0.0,83,0.00,FEW,,0.00,WeatherDisplay:10.37,2013-10-13 05:48:00,
2013-10-13 01:53:00,65.8,60.5,29.97,ESE,102,0.0,0.0,83,0.00,FEW,,0.00,WeatherDisplay:10.37,2013-10-13 05:53:00,
2013-10-13 01:58:00,65.6,60.3,29.96,ESE,102,0.0,0.0,83,0.00,FEW,,0.00,WeatherDisplay:10.37,2013-10-13 05:58:00,
2013-10-13 02:03:00,65.6,60.3,29.96,ESE,102,0.0,0.0,83,0.00,FEW,,0.00,WeatherDisplay:10.37,2013-10-13 06:03:00,
2013-10-13 02:08:00,65.6,60.3,29.96,ESE,102,0.0,0.0,83,0.00,FEW,,0.00,WeatherDisplay:10.37,2013-10-13 06:08:00,
2013-10-13 02:13:00,65.5,60.5,29.96,ESE,102,0.0,0.0,84,0.00,FEW,,0.00,WeatherDisplay:10.37,2013-10-13 06:13:00,
2013-10-13 02:18:00,65.3,60.3,29.96,ESE,102,0.0,0.0,84,0.00,FEW,,0.00,WeatherDisplay:10.37,2013-10-13 06:18:00,
2013-10-13 02:23:00,65.3,60.3,29.95,ESE,102,0.0,0.0,84,0.00,FEW,,0.00,WeatherDisplay:10.37,2013-10-13 06:23:00,
2013-10-13 02:28:00,65.2,60.2,29.95,ESE,102,0.0,0.0,84,0.00,FEW,,0.00,WeatherDisplay:10.37,2013-10-13 06:28:00,
2013-10-13 02:33:00,65.2,60.2,29.96,ESE,102,0.0,0.0,84,0.00,FEW,,0.00,WeatherDisplay:10.37,2013-10-13 06:33:00,
2013-10-13 02:38:00,65.0,60.0,29.96,ESE,102,0.0,0.0,84,0.00,FEW,,0.00,WeatherDisplay:10.37,2013-10-13 06:38:00,
2013-10-13 02:43:00,65.0,60.0,29.96,ESE,102,0.0,0.0,84,0.00,FEW,,0.00,WeatherDisplay:10.37,2013-10-13 06:43:00,
2013-10-13 02:48:00,65.0,60.0,29.96,ESE,102,0.0,0.0,84,0.00,FEW,,0.00,WeatherDisplay:10.37,2013-10-13 06:48:00,
2013-10-13 02:53:00,64.8,59.9,29.96,ESE,102,0.0,0.0,84,0.00,FEW,,0.00,WeatherDisplay:10.37,2013-10-13 06:53:00,
2013-10-13 02:58:00,64.8,59.9,29.96,ESE,102,0.0,0.0,84,0.00,FEW,,0.00,WeatherDisplay:10.37,2013-10-13 06:58:00,
2013-10-13 03:03:00,64.7,59.8,29.96,ESE,102,0.0,0.0,84,0.00,FEW,,0.00,WeatherDisplay:10.37,2013-10-13 07:03:00,
2013-10-13 03:08:00,64.7,59.8,29.96,ESE,102,0.0,0.0,84,0.00,FEW,,0.00,WeatherDisplay:10.37,2013-10-13 07:08:00,
2013-10-13 03:13:00,64.7,59.8,29.95,ESE,102,0.0,0.0,84,0.00,FEW,,0.00,WeatherDisplay:10.37,2013-10-13 07:13:00,
2013-10-13 03:18:00,64.5,59.6,29.95,ESE,102,0.0,0.0,84,0.00,FEW,,0.00,WeatherDisplay:10.37,2013-10-13 07:18:00,
2013-10-13 03:23:00,64.5,59.6,29.95,ESE,102,0.0,0.0,84,0.00,FEW,,0.00,WeatherDisplay:10.37,2013-10-13 07:23:00,
2013-10-13 03:28:00,64.3,59.4,29.95,ESE,102,0.0,0.0,84,0.00,FEW,,0.00,WeatherDisplay:10.37,2013-10-13 07:28:00,
2013-10-13 03:33:00,64.3,59.4,29.95,ESE,102,0.0,0.0,84,0.00,FEW,,0.00,WeatherDisplay:10.37,2013-10-13 07:33:00,
2013-10-13 03:38:00,64.3,59.7,29.95,ESE,102,0.0,0.0,85,0.00,FEW,,0.00,WeatherDisplay:10.37,2013-10-13 07:38:00,
2013-10-13 03:43:00,64.3,59.7,29.95,ESE,102,0.0,0.0,85,0.00,FEW,,0.00,WeatherDisplay:10.37,2013-10-13 07:43:00,
2013-10-13 03:48:00,64.2,59.6,29.95,ESE,102,0.0,0.0,85,0.00,FEW,,0.00,WeatherDisplay:10.37,2013-10-13 07:48:00,
2013-10-13 03:53:00,64.2,59.6,29.95,ESE,102,0.0,0.0,85,0.00,FEW,,0.00,WeatherDisplay:10.37,2013-10-13 07:53:00,
2013-10-13 03:58:00,64.0,59.4,29.95,ESE,102,0.0,0.0,85,0.00,FEW,,0.00,WeatherDisplay:10.37,2013-10-13 07:58:00,
2013-10-13 04:03:00,63.9,59.3,29.95,ESE,102,0.0,0.0,85,0.00,FEW,,0.00,WeatherDisplay:10.37,2013-10-13 08:03:00,
2013-10-13 04:08:00,63.9,59.3,29.95,ESE,102,0.0,0.0,85,0.00,FEW,,0.00,WeatherDisplay:10.37,2013-10-13 08:08:00,
2013-10-13 04:13:00,63.7,59.1,29.95,ESE,102,0.0,0.0,85,0.00,FEW,,0.00,WeatherDisplay:10.37,2013-10-13 08:13:00,
2013-10-13 04:18:00,63.7,59.4,29.95,ESE,102,0.0,0.0,86,0.00,FEW,,0.00,WeatherDisplay:10.37,2013-10-13 08:18:00,
2013-10-13 04:23:00,63.7,59.4,29.95,ESE,102,0.0,0.0,86,0.00,FEW,,0.00,WeatherDisplay:10.37,2013-10-13 08:23:00,
2013-10-13 04:28:00,63.7,59.4,29.95,ESE,102,0.0,0.0,86,0.00,FEW,,0.00,WeatherDisplay:10.37,2013-10-13 08:28:00,
2013-10-13 04:33:00,63.5,59.2,29.95,ESE,102,0.0,0.0,86,0.00,FEW,,0.00,WeatherDisplay:10.37,2013-10-13 08:33:00,
2013-10-13 04:38:00,63.4,59.1,29.95,ESE,102,0.0,0.0,86,0.00,FEW,,0.00,WeatherDisplay:10.37,2013-10-13 08:38:00,
2013-10-13 04:43:00,63.4,59.1,29.95,ESE,102,0.0,0.0,86,0.00,FEW,,0.00,WeatherDisplay:10.37,2013-10-13 08:43:00,
2013-10-13 04:48:00,63.4,59.1,29.95,ESE,102,0.0,0.0,86,0.00,FEW,,0.00,WeatherDisplay:10.37,2013-10-13 08:48:00,
2013-10-13 04:53:00,63.2,58.9,29.95,ESE,102,0.0,0.0,86,0.00,FEW,,0.00,WeatherDisplay:10.37,2013-10-13 08:53:00,
2013-10-13 04:58:00,63.2,58.9,29.96,ESE,102,0.0,0.0,86,0.00,FEW,,0.00,WeatherDisplay:10.37,2013-10-13 08:58:00,
2013-10-13 05:03:00,63.1,58.8,29.96,ESE,102,0.0,0.0,86,0.00,SCT,,0.00,WeatherDisplay:10.37,2013-10-13 09:03:00,
2013-10-13 05:08:00,63.1,58.8,29.96,ESE,102,0.0,0.0,86,0.00,SCT,,0.00,WeatherDisplay:10.37,2013-10-13 09:08:00,
2013-10-13 05:13:00,63.1,58.8,29.96,ESE,102,0.0,0.0,86,0.00,SCT,,0.00,WeatherDisplay:10.37,2013-10-13 09:13:00,
2013-10-13 05:18:00,63.1,58.8,29.96,ESE,102,0.0,0.0,86,0.00,SCT,,0.00,WeatherDisplay:10.37,2013-10-13 09:18:00,
2013-10-13 05:23:00,62.9,58.6,29.96,ESE,102,0.0,0.0,86,0.00,SCT,,0.00,WeatherDisplay:10.37,2013-10-13 09:23:00,
2013-10-13 05:28:00,62.9,58.6,29.96,ESE,102,0.0,0.0,86,0.00,SCT,,0.00,WeatherDisplay:10.37,2013-10-13 09:28:00,
2013-10-13 05:33:00,62.9,58.6,29.96,ESE,102,0.0,0.0,86,0.00,SCT,,0.00,WeatherDisplay:10.37,2013-10-13 09:33:00,
2013-10-13 05:38:00,62.9,58.6,29.97,ESE,102,0.0,0.0,86,0.00,SCT,,0.00,WeatherDisplay:10.37,2013-10-13 09:38:00,
2013-10-13 05:43:00,62.7,58.5,29.97,ESE,102,0.0,0.0,86,0.00,SCT,,0.00,WeatherDisplay:10.37,2013-10-13 09:43:00,
2013-10-13 05:48:00,62.7,58.5,29.97,ESE,102,0.0,0.0,86,0.00,SCT,,0.00,WeatherDisplay:10.37,2013-10-13 09:48:00,
2013-10-13 05:53:00,62.7,58.5,29.97,ESE,102,0.0,0.0,86,0.00,SCT,,0.00,WeatherDisplay:10.37,2013-10-13 09:53:00,
2013-10-13 05:58:00,62.7,58.5,29.97,ESE,102,0.0,0.0,86,0.00,SCT,,0.00,WeatherDisplay:10.37,2013-10-13 09:58:00,
2013-10-13 06:03:00,62.7,58.8,29.98,ESE,102,0.0,0.0,87,0.00,SCT,,0.00,WeatherDisplay:10.37,2013-10-13 10:03:00,
2013-10-13 06:08:00,62.7,58.8,29.98,ESE,102,0.0,0.0,87,0.00,SCT,,0.00,WeatherDisplay:10.37,2013-10-13 10:08:00,
2013-10-13 06:13:00,62.7,58.8,29.98,ESE,102,0.0,0.0,87,0.00,SCT,,0.00,WeatherDisplay:10.37,2013-10-13 10:13:00,
2013-10-13 06:18:00,62.7,58.8,29.98,ESE,102,0.0,0.0,87,0.00,SCT,,0.00,WeatherDisplay:10.37,2013-10-13 10:18:00,
2013-10-13 06:23:00,62.9,59.0,29.98,ESE,102,0.0,0.0,87,0.00,SCT,,0.00,WeatherDisplay:10.37,2013-10-13 10:23:00,
2013-10-13 06:28:00,62.9,59.0,29.98,ESE,102,0.0,0.0,87,0.00,SCT,,0.00,WeatherDisplay:10.37,2013-10-13 10:28:00,
2013-10-13 06:33:00,62.9,59.3,29.98,ESE,102,0.0,0.0,88,0.00,SCT,,0.00,WeatherDisplay:10.37,2013-10-13 10:33:00,
2013-10-13 06:38:00,62.9,59.3,29.98,ESE,102,0.0,0.0,88,0.00,SCT,,0.00,WeatherDisplay:10.37,2013-10-13 10:38:00,
2013-10-13 06:43:00,62.9,59.3,29.98,ESE,102,0.0,0.0,88,0.00,SCT,,0.00,WeatherDisplay:10.37,2013-10-13 10:43:00,
2013-10-13 06:48:00,62.7,59.1,29.98,ESE,102,0.0,0.0,88,0.00,SCT,,0.00,WeatherDisplay:10.37,2013-10-13 10:48:00,
2013-10-13 06:53:00,62.7,59.1,29.98,ESE,102,0.0,0.0,88,0.00,SCT,,0.00,WeatherDisplay:10.37,2013-10-13 10:53:00,
2013-10-13 06:58:00,62.7,59.1,29.98,ESE,102,0.0,0.0,88,0.00,SCT,,0.00,WeatherDisplay:10.37,2013-10-13 10:58:00,
2013-10-13 07:03:00,62.7,59.1,29.98,ESE,102,0.0,0.0,88,0.00,SCT,,0.00,WeatherDisplay:10.37,2013-10-13 11:03:00,
2013-10-13 07:08:00,62.6,59.0,29.98,ESE,102,0.0,0.0,88,0.00,SCT,,0.00,WeatherDisplay:10.37,2013-10-13 11:08:00,
2013-10-13 07:13:00,62.6,59.0,29.99,ESE,102,0.0,0.0,88,0.00,SCT,,0.00,WeatherDisplay:10.37,2013-10-13 11:13:00,
2013-10-13 07:18:00,62.6,59.0,29.98,ESE,102,0.0,0.0,88,0.00,SCT,,0.00,WeatherDisplay:10.37,2013-10-13 11:18:00,
2013-10-13 07:23:00,62.6,59.0,29.98,ESE,102,0.0,0.0,88,0.00,SCT,,0.00,WeatherDisplay:10.37,2013-10-13 11:23:00,
2013-10-13 07:28:00,62.4,58.8,29.98,ESE,102,0.0,0.0,88,0.00,SCT,,0.00,WeatherDisplay:10.37,2013-10-13 11:28:00,
2013-10-13 07:33:00,62.4,58.8,29.98,ESE,102,0.0,0.0,88,0.00,SCT,,0.00,WeatherDisplay:10.37,2013-10-13 11:33:00,
2013-10-13 07:38:00,62.3,58.7,29.98,ESE,102,0.0,0.0,88,0.00,SCT,,0.00,WeatherDisplay:10.37,2013-10-13 11:38:00,
2013-10-13 07:43:00,62.3,58.7,29.99,ESE,102,0.0,0.0,88,0.00,SCT,,0.00,WeatherDisplay:10.37,2013-10-13 11:43:00,
2013-10-13 07:48:00,62.3,58.7,29.99,ESE,102,0.0,0.0,88,0.00,SCT,,0.00,WeatherDisplay:10.37,2013-10-13 11:48:00,
2013-10-13 07:53:00,62.1,58.5,29.98,ESE,102,0.0,0.0,88,0.00,SCT,,0.00,WeatherDisplay:10.37,2013-10-13 11:53:00,
2013-10-13 07:58:00,62.1,58.5,29.98,ESE,102,0.0,0.0,88,0.00,SCT,,0.00,WeatherDisplay:10.37,2013-10-13 11:58:00,
2013-10-13 08:03:00,62.1,58.5,29.99,ESE,102,0.0,0.0,88,0.00,BKN,,0.00,WeatherDisplay:10.37,2013-10-13 12:03:00,
2013-10-13 08:08:00,62.1,58.5,29.99,ESE,102,0.0,0.0,88,0.00,BKN,,0.00,WeatherDisplay:10.37,2013-10-13 12:08:00,
2013-10-13 08:13:00,62.1,58.5,29.99,ESE,102,0.0,0.0,88,0.00,BKN,,0.00,WeatherDisplay:10.37,2013-10-13 12:13:00,
2013-10-13 08:18:00,62.1,58.5,30.00,ESE,102,0.0,0.0,88,0.00,BKN,,0.00,WeatherDisplay:10.37,2013-10-13 12:18:00,
2013-10-13 08:23:00,62.3,58.7,30.00,ESE,102,0.0,0.0,88,0.00,BKN,,0.00,WeatherDisplay:10.37,2013-10-13 12:23:00,
2013-10-13 08:28:00,62.3,58.7,30.00,ESE,102,0.0,0.0,88,0.00,BKN,,0.00,WeatherDisplay:10.37,2013-10-13 12:28:00,
2013-10-13 08:33:00,62.4,59.1,30.00,ESE,102,0.0,0.0,89,0.00,BKN,,0.00,WeatherDisplay:10.37,2013-10-13 12:33:00,
2013-10-13 08:38:00,62.7,59.4,30.00,ESE,102,0.0,1.2,89,0.00,BKN,,0.00,WeatherDisplay:10.37,2013-10-13 12:38:00,
2013-10-13 08:43:00,62.9,59.6,30.01,ESE,102,0.0,0.0,89,0.00,BKN,,0.00,WeatherDisplay:10.37,2013-10-13 12:43:00,
2013-10-13 08:48:00,63.2,59.9,30.01,ESE,102,0.0,0.0,89,0.00,BKN,,0.00,WeatherDisplay:10.37,2013-10-13 12:48:00,
2013-10-13 08:53:00,63.4,60.1,30.01,ESE,102,0.0,0.0,89,0.00,BKN,,0.00,WeatherDisplay:10.37,2013-10-13 12:53:00,
2013-10-13 08:58:00,63.5,60.2,30.01,ESE,102,0.0,0.0,89,0.00,BKN,,0.00,WeatherDisplay:10.37,2013-10-13 12:58:00,
2013-10-13 09:03:00,63.7,60.4,30.01,ESE,102,0.0,0.0,89,0.00,BKN,,0.00,WeatherDisplay:10.37,2013-10-13 13:03:00,
2013-10-13 09:08:00,63.9,60.9,30.01,ESE,102,0.0,0.0,90,0.00,BKN,,0.00,WeatherDisplay:10.37,2013-10-13 13:08:00,
2013-10-13 09:13:00,65.2,62.2,30.01,ESE,102,0.1,1.2,90,0.00,BKN,,0.00,WeatherDisplay:10.37,2013-10-13 13:13:00,
2013-10-13 09:18:00,65.8,62.5,30.02,ESE,102,0.0,1.2,89,0.00,BKN,,0.00,WeatherDisplay:10.37,2013-10-13 13:18:00,
2013-10-13 09:23:00,66.6,62.3,30.02,NNE,27,0.0,0.0,86,0.00,BKN,,0.00,WeatherDisplay:10.37,2013-10-13 13:23:00,
2013-10-13 09:28:00,67.1,62.8,30.03,NNE,27,0.4,2.3,86,0.00,BKN,,0.00,WeatherDisplay:10.37,2013-10-13 13:28:00,
2013-10-13 09:33:00,67.9,62.2,30.03,NNE,27,0.0,0.0,82,0.00,BKN,,0.00,WeatherDisplay:10.37,2013-10-13 13:33:00,
2013-10-13 09:38:00,68.9,62.1,30.03,NNE,27,2.1,3.5,79,0.00,BKN,,0.00,WeatherDisplay:10.37,2013-10-13 13:38:00,
2013-10-13 09:43:00,69.6,62.1,30.03,NNE,27,0.0,0.0,77,0.00,BKN,,0.00,WeatherDisplay:10.37,2013-10-13 13:43:00,
2013-10-13 09:48:00,70.3,62.4,30.03,NNE,27,0.0,0.0,76,0.00,BKN,,0.00,WeatherDisplay:10.37,2013-10-13 13:48:00,
2013-10-13 09:53:00,70.6,62.3,30.03,NNE,26,0.7,0.0,75,0.00,BKN,,0.00,WeatherDisplay:10.37,2013-10-13 13:53:00,
2013-10-13 09:58:00,70.8,61.7,30.03,NNE,14,0.6,0.0,73,0.00,BKN,,0.00,WeatherDisplay:10.37,2013-10-13 13:58:00,
2013-10-13 10:03:00,70.8,61.7,30.03,NNE,14,0.0,0.0,73,0.00,SCT,,0.00,WeatherDisplay:10.37,2013-10-13 14:03:00,
2013-10-13 10:08:00,70.8,61.7,30.03,NNE,14,0.0,0.0,73,0.00,SCT,,0.00,WeatherDisplay:10.37,2013-10-13 14:08:00,
2013-10-13 10:13:00,70.9,61.8,30.03,NNE,14,0.0,0.0,73,0.00,SCT,,0.00,WeatherDisplay:10.37,2013-10-13 14:13:00,
2013-10-13 10:18:00,70.8,61.7,30.03,NNE,14,0.0,0.0,73,0.00,SCT,,0.00,WeatherDisplay:10.37,2013-10-13 14:18:00,
2013-10-13 10:23:00,70.9,61.8,30.03,NNE,14,0.0,0.0,73,0.00,SCT,,0.00,WeatherDisplay:10.37,2013-10-13 14:23:00,
2013-10-13 10:28:00,70.9,61.8,30.03,NNE,14,0.0,0.0,73,0.00,SCT,,0.00,WeatherDisplay:10.37,2013-10-13 14:28:00,
2013-10-13 10:33:00,71.1,62.0,30.03,NNE,13,0.0,2.3,73,0.00,SCT,,0.00,WeatherDisplay:10.37,2013-10-13 14:33:00,
2013-10-13 10:38:00,71.3,61.8,30.03,NNE,14,1.1,3.5,72,0.00,SCT,,0.00,WeatherDisplay:10.37,2013-10-13 14:38:00,
2013-10-13 10:43:00,72.3,62.0,30.03,NNE,13,0.0,0.0,70,0.00,SCT,,0.00,WeatherDisplay:10.37,2013-10-13 14:43:00,
2013-10-13 10:48:00,74.4,61.9,30.03,NNE,13,0.0,1.2,65,0.00,SCT,,0.00,WeatherDisplay:10.37,2013-10-13 14:48:00,
2013-10-13 10:53:00,75.8,61.8,30.03,NNE,12,0.3,2.3,62,0.00,SCT,,0.00,WeatherDisplay:10.37,2013-10-13 14:53:00,
2013-10-13 10:58:00,76.7,61.8,30.03,North,4,0.0,0.0,60,0.00,SCT,,0.00,WeatherDisplay:10.37,2013-10-13 14:58:00,
2013-10-13 11:04:00,76.7,62.2,30.03,North,4,0.0,0.0,61,0.00,FEW,,0.00,WeatherDisplay:10.37,2013-10-13 15:04:00,
2013-10-13 11:09:00,77.4,61.9,30.04,SW,233,0.2,0.0,59,0.00,FEW,,0.00,WeatherDisplay:10.37,2013-10-13 15:09:00,
2013-10-13 11:14:00,78.1,61.1,30.04,WSW,258,0.6,2.3,56,0.00,FEW,,0.00,WeatherDisplay:10.37,2013-10-13 15:14:00,
2013-10-13 11:19:00,78.6,62.1,30.04,WSW,258,0.1,0.0,57,0.00,FEW,,0.00,WeatherDisplay:10.37,2013-10-13 15:19:00,
2013-10-13 11:24:00,79.2,62.1,30.04,NNE,21,0.1,0.0,56,0.00,FEW,,0.00,WeatherDisplay:10.37,2013-10-13 15:24:00,
2013-10-13 11:29:00,79.2,62.7,30.03,NNE,22,1.0,5.8,57,0.00,FEW,,0.00,WeatherDisplay:10.37,2013-10-13 15:29:00,
2013-10-13 11:45:00,80.7,60.9,30.03,ENE,59,0.0,3.0,51,0.00,CLR,,0.00,WeatherDisplay:10.37,2013-10-13 15:45:00,
2013-10-13 12:00:00,81.6,60.6,30.02,NE,49,0.0,5.0,49,0.00,CLR,,0.00,WeatherDisplay:10.37,2013-10-13 16:00:00,
2013-10-13 12:15:00,82.0,61.5,30.02,NE,45,0.0,4.0,50,0.00,CLR,,0.00,WeatherDisplay:10.37,2013-10-13 16:15:00,
2013-10-13 12:30:00,83.2,60.9,30.01,NE,34,0.0,5.0,47,0.00,CLR,,0.00,WeatherDisplay:10.37,2013-10-13 16:30:00,
2013-10-13 12:45:00,83.4,60.4,30.01,NNW,344,2.0,6.0,46,0.00,CLR,,0.00,WeatherDisplay:10.37,2013-10-13 16:45:00,
2013-10-13 12:56:00,84.0,61.0,30.01,North,360,2.1,3.5,46,0.00,FEW,,0.00,WeatherDisplay:10.37,2013-10-13 16:56:00,
2013-10-13 13:01:00,84.5,62.1,30.01,North,10,0.2,2.0,47,0.00,FEW,,0.00,WeatherDisplay:10.37,2013-10-13 17:01:00,
2013-10-13 13:06:00,84.0,60.4,30.00,ESE,110,0.0,3.5,45,0.00,SCT,,0.00,WeatherDisplay:10.37,2013-10-13 17:06:00,
2013-10-13 13:11:00,83.8,60.2,30.00,ENE,73,0.0,0.0,45,0.00,SCT,,0.00,WeatherDisplay:10.37,2013-10-13 17:11:00,
2013-10-13 13:16:00,84.9,62.4,30.00,ENE,71,0.0,1.2,47,0.00,SCT,,0.00,WeatherDisplay:10.37,2013-10-13 17:16:00,
2013-10-13 13:21:00,84.7,60.4,30.00,ENE,69,0.0,0.0,44,0.00,SCT,,0.00,WeatherDisplay:10.37,2013-10-13 17:21:00,
2013-10-13 13:26:00,84.5,58.9,30.00,ENE,58,0.3,2.3,42,0.00,SCT,,0.00,WeatherDisplay:10.37,2013-10-13 17:26:00,
2013-10-13 13:31:00,85.1,60.7,29.99,North,6,0.2,2.3,44,0.00,SCT,,0.00,WeatherDisplay:10.37,2013-10-13 17:31:00,
2013-10-13 13:36:00,84.9,60.6,29.99,NNE,25,0.4,3.5,44,0.00,SCT,,0.00,WeatherDisplay:10.37,2013-10-13 17:36:00,
2013-10-13 13:41:00,83.2,59.6,29.99,NE,47,0.0,0.0,45,0.00,SCT,,0.00,WeatherDisplay:10.37,2013-10-13 17:41:00,
2013-10-13 13:46:00,84.3,61.9,29.98,NE,48,0.0,0.0,47,0.00,SCT,,0.00,WeatherDisplay:10.37,2013-10-13 17:46:00,
2013-10-13 13:51:00,85.7,63.8,29.98,North,10,1.8,8.1,48,0.00,SCT,,0.00,WeatherDisplay:10.37,2013-10-13 17:51:00,
2013-10-13 13:56:00,84.5,60.2,29.98,NE,37,0.0,1.2,44,0.00,SCT,,0.00,WeatherDisplay:10.37,2013-10-13 17:56:00,
2013-10-13 14:01:00,83.4,60.4,29.98,North,4,0.0,0.0,46,0.00,SCT,,0.00,WeatherDisplay:10.37,2013-10-13 18:01:00,
2013-10-13 14:06:00,82.8,59.3,29.98,WNW,302,0.0,0.0,45,0.00,BKN,,0.00,WeatherDisplay:10.37,2013-10-13 18:06:00,
2013-10-13 14:11:00,82.4,59.5,29.98,WNW,302,0.0,0.0,46,0.00,BKN,,0.00,WeatherDisplay:10.37,2013-10-13 18:11:00,
2013-10-13 14:16:00,82.6,60.3,29.98,NE,54,1.5,3.5,47,0.00,BKN,,0.00,WeatherDisplay:10.37,2013-10-13 18:16:00,
2013-10-13 14:21:00,84.1,59.2,29.98,East,83,0.0,0.0,43,0.00,BKN,,0.00,WeatherDisplay:10.37,2013-10-13 18:21:00,
2013-10-13 14:26:00,84.7,61.0,29.97,NE,41,0.0,1.2,45,0.00,BKN,,0.00,WeatherDisplay:10.37,2013-10-13 18:26:00,
2013-10-13 14:31:00,84.7,60.4,29.97,NNE,22,0.1,1.2,44,0.00,BKN,,0.00,WeatherDisplay:10.37,2013-10-13 18:31:00,
2013-10-13 14:36:00,85.5,59.1,29.97,NNE,29,2.0,6.9,41,0.00,BKN,,0.00,WeatherDisplay:10.37,2013-10-13 18:36:00,
2013-10-13 14:41:00,84.9,58.6,29.97,NNE,18,2.4,4.6,41,0.00,BKN,,0.00,WeatherDisplay:10.37,2013-10-13 18:41:00,
2013-10-13 14:46:00,84.0,61.6,29.97,NNE,24,0.0,0.0,47,0.00,BKN,,0.00,WeatherDisplay:10.37,2013-10-13 18:46:00,
2013-10-13 14:51:00,85.1,60.7,29.97,NNW,337,0.0,1.2,44,0.00,BKN,,0.00,WeatherDisplay:10.37,2013-10-13 18:51:00,
2013-10-13 14:56:00,85.9,61.5,29.97,ENE,66,2.7,10.4,44,0.00,BKN,,0.00,WeatherDisplay:10.37,2013-10-13 18:56:00,
2013-10-13 15:01:00,84.9,62.4,29.97,ENE,66,1.1,4.6,47,0.00,BKN,,0.00,WeatherDisplay:10.37,2013-10-13 19:01:00,
2013-10-13 15:06:00,83.6,61.2,29.97,NE,37,0.7,5.0,47,0.00,BKN,,0.00,WeatherDisplay:10.37,2013-10-13 19:06:00,
2013-10-13 15:11:00,83.0,60.7,29.97,NE,56,1.0,3.5,47,0.00,BKN,,0.00,WeatherDisplay:10.37,2013-10-13 19:11:00,
2013-10-13 15:16:00,83.4,61.7,29.96,ENE,70,0.0,1.2,48,0.00,BKN,,0.00,WeatherDisplay:10.37,2013-10-13 19:16:00,
2013-10-13 15:21:00,84.9,63.0,29.96,NW,322,0.0,0.0,48,0.00,BKN,,0.00,WeatherDisplay:10.37,2013-10-13 19:21:00,
2013-10-13 15:26:00,85.7,61.3,29.96,NE,35,0.2,3.5,44,0.00,BKN,,0.00,WeatherDisplay:10.37,2013-10-13 19:26:00,
2013-10-13 15:31:00,84.7,62.8,29.96,NE,37,0.0,0.0,48,0.00,BKN,,0.00,WeatherDisplay:10.37,2013-10-13 19:31:00,
2013-10-13 15:36:00,83.0,63.6,29.96,NE,39,0.0,0.0,52,0.00,BKN,,0.00,WeatherDisplay:10.37,2013-10-13 19:36:00,
2013-10-13 15:41:00,83.4,63.4,29.96,NE,54,0.0,0.0,51,0.00,BKN,,0.00,WeatherDisplay:10.37,2013-10-13 19:41:00,
2013-10-13 15:46:00,83.8,64.3,29.96,NE,39,0.0,3.5,52,0.00,BKN,,0.00,WeatherDisplay:10.37,2013-10-13 19:46:00,
2013-10-13 15:51:00,83.2,64.8,29.96,NE,54,0.0,0.0,54,0.00,BKN,,0.00,WeatherDisplay:10.37,2013-10-13 19:51:00,
2013-10-13 15:56:00,82.4,65.1,29.95,NE,56,0.1,1.2,56,0.00,BKN,,0.00,WeatherDisplay:10.37,2013-10-13 19:56:00,
2013-10-13 16:01:00,82.2,65.4,29.96,North,4,1.1,4.6,57,0.00,BKN,,0.00,WeatherDisplay:10.37,2013-10-13 20:01:00,
2013-10-13 16:06:00,82.0,65.8,29.96,ENE,58,0.2,2.3,58,0.00,BKN,,0.00,WeatherDisplay:10.37,2013-10-13 20:06:00,
2013-10-13 16:11:00,81.6,65.9,29.96,ENE,73,0.9,3.5,59,0.00,BKN,,0.00,WeatherDisplay:10.37,2013-10-13 20:11:00,
2013-10-13 16:16:00,81.6,65.9,29.96,ENE,70,0.1,1.2,59,0.00,BKN,,0.00,WeatherDisplay:10.37,2013-10-13 20:16:00,
2013-10-13 16:21:00,81.4,66.2,29.96,NNE,28,0.0,1.2,60,0.00,BKN,,0.00,WeatherDisplay:10.37,2013-10-13 20:21:00,
2013-10-13 16:26:00,80.9,66.2,29.96,NE,56,1.2,4.6,61,0.00,BKN,,0.00,WeatherDisplay:10.37,2013-10-13 20:26:00,
2013-10-13 16:31:00,81.1,66.4,29.96,East,101,0.8,3.5,61,0.00,BKN,,0.00,WeatherDisplay:10.37,2013-10-13 20:31:00,
2013-10-13 16:36:00,81.4,66.7,29.95,NE,54,0.1,1.2,61,0.00,BKN,,0.00,WeatherDisplay:10.37,2013-10-13 20:36:00,
2013-10-13 16:41:00,82.0,66.7,29.95,NE,56,1.3,4.6,60,0.00,BKN,,0.00,WeatherDisplay:10.37,2013-10-13 20:41:00,
2013-10-13 16:46:00,81.4,66.2,29.96,ENE,60,1.8,6.9,60,0.00,BKN,,0.00,WeatherDisplay:10.37,2013-10-13 20:46:00,
2013-10-13 16:51:00,80.9,66.2,29.96,ENE,58,0.8,3.5,61,0.00,BKN,,0.00,WeatherDisplay:10.37,2013-10-13 20:51:00,
2013-10-13 16:56:00,80.9,66.2,29.96,ENE,78,0.0,0.0,61,0.00,BKN,,0.00,WeatherDisplay:10.37,2013-10-13 20:56:00,
2013-10-13 17:01:00,80.9,65.7,29.96,NE,54,0.9,3.5,60,0.00,BKN,,0.00,WeatherDisplay:10.37,2013-10-13 21:01:00,
2013-10-13 17:06:00,80.3,65.6,29.96,NE,56,0.9,5.0,61,0.00,BKN,,0.00,WeatherDisplay:10.37,2013-10-13 21:06:00,
2013-10-13 17:11:00,80.1,65.9,29.96,NNE,29,2.7,6.9,62,0.00,BKN,,0.00,WeatherDisplay:10.37,2013-10-13 21:11:00,
2013-10-13 17:16:00,80.1,66.4,29.96,East,92,0.8,5.8,63,0.00,BKN,,0.00,WeatherDisplay:10.37,2013-10-13 21:16:00,
2013-10-13 17:21:00,80.1,66.4,29.96,NE,56,1.2,2.3,63,0.00,BKN,,0.00,WeatherDisplay:10.37,2013-10-13 21:21:00,
2013-10-13 17:26:00,79.9,66.2,29.96,NE,56,1.1,3.5,63,0.00,BKN,,0.00,WeatherDisplay:10.37,2013-10-13 21:26:00,
2013-10-13 17:31:00,79.8,66.1,29.96,NNE,25,2.3,4.6,63,0.00,BKN,,0.00,WeatherDisplay:10.37,2013-10-13 21:31:00,
2013-10-13 17:36:00,79.0,66.2,29.97,ENE,57,0.2,3.5,65,0.00,BKN,,0.00,WeatherDisplay:10.37,2013-10-13 21:36:00,
2013-10-13 17:41:00,78.8,66.5,29.97,NE,52,1.9,3.5,66,0.00,BKN,,0.00,WeatherDisplay:10.37,2013-10-13 21:41:00,
2013-10-13 17:46:00,78.6,66.3,29.97,ENE,57,0.1,1.2,66,0.00,BKN,,0.00,WeatherDisplay:10.37,2013-10-13 21:46:00,
2013-10-13 17:51:00,78.6,66.3,29.97,NE,43,0.9,4.0,66,0.00,BKN,,0.00,WeatherDisplay:10.37,2013-10-13 21:51:00,
2013-10-13 17:56:00,78.6,66.7,29.97,ENE,66,3.0,6.9,67,0.00,BKN,,0.00,WeatherDisplay:10.37,2013-10-13 21:56:00,
2013-10-13 18:01:00,78.5,66.6,29.97,NE,41,0.1,1.0,67,0.00,BKN,,0.00,WeatherDisplay:10.37,2013-10-13 22:01:00,
2013-10-13 18:06:00,78.5,66.6,29.97,NE,41,0.0,1.2,67,0.00,BKN,,0.00,WeatherDisplay:10.37,2013-10-13 22:06:00,
2013-10-13 18:11:00,78.3,66.9,29.97,NE,39,0.3,5.8,68,0.00,BKN,,0.00,WeatherDisplay:10.37,2013-10-13 22:11:00,
2013-10-13 18:16:00,78.3,67.3,29.97,ENE,66,0.0,2.3,69,0.00,BKN,,0.00,WeatherDisplay:10.37,2013-10-13 22:16:00,
2013-10-13 18:21:00,78.1,67.1,29.97,ENE,57,1.1,3.5,69,0.00,BKN,,0.00,WeatherDisplay:10.37,2013-10-13 22:21:00,
2013-10-13 18:26:00,77.9,67.3,29.98,NE,54,0.0,0.0,70,0.00,BKN,,0.00,WeatherDisplay:10.37,2013-10-13 22:26:00,
2013-10-13 18:31:00,77.7,67.1,29.98,ENE,60,0.0,0.0,70,0.00,BKN,,0.00,WeatherDisplay:10.37,2013-10-13 22:31:00,
2013-10-13 18:36:00,77.4,66.8,29.98,NNE,29,1.1,7.0,70,0.00,BKN,,0.00,WeatherDisplay:10.37,2013-10-13 22:36:00,
2013-10-13 18:41:00,77.4,67.3,29.98,NE,41,0.0,0.0,71,0.00,BKN,,0.00,WeatherDisplay:10.37,2013-10-13 22:41:00,
2013-10-13 18:46:00,77.2,67.5,29.98,NE,50,0.0,0.0,72,0.00,BKN,,0.00,WeatherDisplay:10.37,2013-10-13 22:46:00,
2013-10-13 18:51:00,77.0,67.7,29.98,NE,49,0.0,0.0,73,0.00,BKN,,0.00,WeatherDisplay:10.37,2013-10-13 22:51:00,
2013-10-13 18:56:00,76.8,67.5,29.99,NE,50,0.1,0.0,73,0.00,BKN,,0.00,WeatherDisplay:10.37,2013-10-13 22:56:00,
2013-10-13 19:01:00,76.7,67.4,29.99,NE,50,0.0,0.0,73,0.00,BKN,,0.00,WeatherDisplay:10.37,2013-10-13 23:01:00,
2013-10-13 19:06:00,76.5,67.2,29.99,NE,50,0.0,0.0,73,0.00,BKN,,0.00,WeatherDisplay:10.37,2013-10-13 23:06:00,
2013-10-13 19:11:00,76.1,66.8,29.99,NE,41,1.6,4.6,73,0.00,BKN,,0.00,WeatherDisplay:10.37,2013-10-13 23:11:00,
2013-10-13 19:16:00,76.0,66.7,29.99,NE,41,0.1,0.0,73,0.00,BKN,,0.00,WeatherDisplay:10.37,2013-10-13 23:16:00,
2013-10-13 19:21:00,75.8,66.5,29.99,NE,36,0.0,2.3,73,0.00,BKN,,0.00,WeatherDisplay:10.37,2013-10-13 23:21:00,
2013-10-13 19:26:00,75.6,66.3,29.99,ENE,69,0.0,3.5,73,0.00,BKN,,0.00,WeatherDisplay:10.37,2013-10-13 23:26:00,
2013-10-13 19:31:00,75.4,66.1,30.00,NE,41,0.1,1.2,73,0.00,BKN,,0.00,WeatherDisplay:10.37,2013-10-13 23:31:00,
2013-10-13 19:36:00,75.3,66.4,30.00,North,10,1.0,3.5,74,0.00,BKN,,0.00,WeatherDisplay:10.37,2013-10-13 23:36:00,
2013-10-13 19:41:00,75.3,66.4,30.00,North,10,0.0,0.0,74,0.00,BKN,,0.00,WeatherDisplay:10.37,2013-10-13 23:41:00,
2013-10-13 19:46:00,75.1,66.2,30.00,NNE,33,0.5,2.0,74,0.00,BKN,,0.00,WeatherDisplay:10.37,2013-10-13 23:46:00,
2013-10-13 19:51:00,75.1,66.6,30.00,NNE,33,0.0,0.0,75,0.00,BKN,,0.00,WeatherDisplay:10.37,2013-10-13 23:51:00,
2013-10-13 19:56:00,74.9,66.4,30.00,SSE,158,1.2,9.0,75,0.00,BKN,,0.00,WeatherDisplay:10.37,2013-10-13 23:56:00,
2013-10-13 20:01:00,74.9,66.8,30.00,ENE,63,0.1,2.0,76,0.00,BKN,,0.00,WeatherDisplay:10.37,2013-10-14 00:01:00,
2013-10-13 20:06:00,74.7,66.6,30.00,ENE,60,0.0,0.0,76,0.00,SCT,,0.00,WeatherDisplay:10.37,2013-10-14 00:06:00,
2013-10-13 20:11:00,74.6,66.5,30.00,ENE,60,0.0,0.0,76,0.00,SCT,,0.00,WeatherDisplay:10.37,2013-10-14 00:11:00,
2013-10-13 20:16:00,74.6,66.5,30.01,ENE,61,0.4,1.2,76,0.00,SCT,,0.00,WeatherDisplay:10.37,2013-10-14 00:16:00,
2013-10-13 20:21:00,74.6,66.5,30.01,ENE,61,0.4,2.3,76,0.00,SCT,,0.00,WeatherDisplay:10.37,2013-10-14 00:21:00,
2013-10-13 20:26:00,74.4,66.3,30.01,ENE,61,0.0,0.0,76,0.00,SCT,,0.00,WeatherDisplay:10.37,2013-10-14 00:26:00,
2013-10-13 20:31:00,74.4,66.7,30.01,ENE,61,0.4,2.3,77,0.00,SCT,,0.00,WeatherDisplay:10.37,2013-10-14 00:31:00,
2013-10-13 20:36:00,74.2,66.5,30.01,ENE,61,0.0,0.0,77,0.00,SCT,,0.00,WeatherDisplay:10.37,2013-10-14 00:36:00,
2013-10-13 20:41:00,74.2,66.5,30.01,ENE,61,0.0,0.0,77,0.00,SCT,,0.00,WeatherDisplay:10.37,2013-10-14 00:41:00,
2013-10-13 20:46:00,74.0,66.3,30.01,ENE,61,0.0,0.0,77,0.00,SCT,,0.00,WeatherDisplay:10.37,2013-10-14 00:46:00,
2013-10-13 20:51:00,74.0,66.7,30.01,ENE,61,0.0,0.0,78,0.00,SCT,,0.00,WeatherDisplay:10.37,2013-10-14 00:51:00,
2013-10-13 20:56:00,73.9,66.6,30.01,ENE,61,0.0,0.0,78,0.00,SCT,,0.00,WeatherDisplay:10.37,2013-10-14 00:56:00,
2013-10-13 21:01:00,73.9,66.6,30.02,ENE,61,0.0,0.0,78,0.00,SCT,,0.00,WeatherDisplay:10.37,2013-10-14 01:01:00,
2013-10-13 21:06:00,73.9,66.6,30.02,ENE,61,0.0,0.0,78,0.00,SCT,,0.00,WeatherDisplay:10.37,2013-10-14 01:06:00,
2013-10-13 21:11:00,73.9,66.6,30.02,ENE,61,0.0,0.0,78,0.00,SCT,,0.00,WeatherDisplay:10.37,2013-10-14 01:11:00,
2013-10-13 21:16:00,73.7,66.8,30.02,ENE,61,0.0,0.0,79,0.00,SCT,,0.00,WeatherDisplay:10.37,2013-10-14 01:16:00,
2013-10-13 21:21:00,73.7,66.8,30.02,ENE,61,0.0,0.0,79,0.00,SCT,,0.00,WeatherDisplay:10.37,2013-10-14 01:21:00,
2013-10-13 21:26:00,73.7,66.8,30.02,ENE,61,0.0,0.0,79,0.00,SCT,,0.00,WeatherDisplay:10.37,2013-10-14 01:26:00,
2013-10-13 21:31:00,73.5,66.6,30.02,ENE,61,0.0,0.0,79,0.00,SCT,,0.00,WeatherDisplay:10.37,2013-10-14 01:31:00,
2013-10-13 21:37:00,73.5,66.6,30.02,ENE,61,0.0,0.0,79,0.00,SCT,,0.00,WeatherDisplay:10.37,2013-10-14 01:37:00,
2013-10-13 21:42:00,73.3,66.4,30.02,ENE,61,0.0,0.0,79,0.00,SCT,,0.00,WeatherDisplay:10.37,2013-10-14 01:42:00,
2013-10-13 21:47:00,73.3,66.4,30.02,ENE,61,0.0,0.0,79,0.00,SCT,,0.00,WeatherDisplay:10.37,2013-10-14 01:47:00,
2013-10-13 21:52:00,73.2,66.7,30.02,ENE,61,0.0,0.0,80,0.00,SCT,,0.00,WeatherDisplay:10.37,2013-10-14 01:52:00,
2013-10-13 21:57:00,73.2,66.7,30.02,ENE,61,0.0,0.0,80,0.00,SCT,,0.00,WeatherDisplay:10.37,2013-10-14 01:57:00,
2013-10-13 22:02:00,73.0,66.5,30.02,ENE,61,0.0,0.0,80,0.00,SCT,,0.00,WeatherDisplay:10.37,2013-10-14 02:02:00,
2013-10-13 22:07:00,73.0,66.5,30.02,ENE,61,0.0,0.0,80,0.00,BKN,,0.00,WeatherDisplay:10.37,2013-10-14 02:07:00,
2013-10-13 22:12:00,72.8,66.3,30.02,ENE,61,0.0,0.0,80,0.00,BKN,,0.00,WeatherDisplay:10.37,2013-10-14 02:12:00,
2013-10-13 22:17:00,72.8,66.3,30.01,ENE,61,0.0,0.0,80,0.00,BKN,,0.00,WeatherDisplay:10.37,2013-10-14 02:17:00,
2013-10-13 22:22:00,72.7,66.2,30.02,ENE,61,0.0,0.0,80,0.00,BKN,,0.00,WeatherDisplay:10.37,2013-10-14 02:22:00,
2013-10-13 22:27:00,72.7,66.2,30.02,ENE,61,0.0,0.0,80,0.00,BKN,,0.00,WeatherDisplay:10.37,2013-10-14 02:27:00,
2013-10-13 22:32:00,72.5,66.0,30.02,ENE,61,0.0,0.0,80,0.00,BKN,,0.00,WeatherDisplay:10.37,2013-10-14 02:32:00,
2013-10-13 22:37:00,72.3,65.8,30.02,ENE,61,0.0,0.0,80,0.00,BKN,,0.00,WeatherDisplay:10.37,2013-10-14 02:37:00,
2013-10-13 22:42:00,72.3,65.8,30.02,ENE,61,0.0,0.0,80,0.00,BKN,,0.00,WeatherDisplay:10.37,2013-10-14 02:42:00,
2013-10-13 22:47:00,72.1,65.6,30.02,ENE,61,0.0,0.0,80,0.00,BKN,,0.00,WeatherDisplay:10.37,2013-10-14 02:47:00,
2013-10-13 22:52:00,72.0,65.5,30.02,ENE,61,0.0,0.0,80,0.00,BKN,,0.00,WeatherDisplay:10.37,2013-10-14 02:52:00,
2013-10-13 22:57:00,71.8,65.3,30.02,ENE,61,0.0,0.0,80,0.00,BKN,,0.00,WeatherDisplay:10.37,2013-10-14 02:57:00,
2013-10-13 23:02:00,71.8,65.3,30.02,ENE,61,0.0,0.0,80,0.00,BKN,,0.00,WeatherDisplay:10.37,2013-10-14 03:02:00,
2013-10-13 23:07:00,71.6,65.1,30.02,ENE,61,0.0,0.0,80,0.00,SCT,,0.00,WeatherDisplay:10.37,2013-10-14 03:07:00,
2013-10-13 23:12:00,71.5,65.0,30.02,ENE,61,0.0,0.0,80,0.00,SCT,,0.00,WeatherDisplay:10.37,2013-10-14 03:12:00,
2013-10-13 23:17:00,71.5,65.0,30.01,ENE,61,0.0,0.0,80,0.00,SCT,,0.00,WeatherDisplay:10.37,2013-10-14 03:17:00,
2013-10-13 23:22:00,71.3,64.8,30.01,ENE,61,0.0,0.0,80,0.00,SCT,,0.00,WeatherDisplay:10.37,2013-10-14 03:22:00,
2013-10-13 23:27:00,71.1,64.6,30.01,ENE,61,0.0,0.0,80,0.00,SCT,,0.00,WeatherDisplay:10.37,2013-10-14 03:27:00,
2013-10-13 23:32:00,70.9,64.4,30.01,ENE,61,0.0,0.0,80,0.00,SCT,,0.00,WeatherDisplay:10.37,2013-10-14 03:32:00,
2013-10-13 23:37:00,70.9,64.4,30.01,ENE,61,0.0,0.0,80,0.00,SCT,,0.00,WeatherDisplay:10.37,2013-10-14 03:37:00,
2013-10-13 23:42:00,70.8,64.3,30.01,ENE,61,0.0,0.0,80,0.00,SCT,,0.00,WeatherDisplay:10.37,2013-10-14 03:42:00,
2013-10-13 23:47:00,70.6,64.1,30.01,ENE,61,0.0,0.0,80,0.00,SCT,,0.00,WeatherDisplay:10.37,2013-10-14 03:47:00,
2013-10-13 23:52:00,70.4,63.9,30.01,ENE,61,0.0,0.0,80,0.00,SCT,,0.00,WeatherDisplay:10.37,2013-10-14 03:52:00,
2013-10-13 23:57:00,70.4,63.9,30.01,ENE,61,0.0,0.0,80,0.00,SCT,,0.00,WeatherDisplay:10.37,2013-10-14 03:57:00,